Location: Arbon
(43.0005°N, 0.7472°E)
Time: 03:35:25
(UTC+00:00)

Meteor 1-21 Rocket - Pass Details

Date: 07 August 2020
Orbit: 833 x 908 km, 81.2° (Epoch: 27 September)

Event Time Altitude Azimuth Distance (km) Brightness Sun altitude
Rises 03:11:01 0° 351° (N) 3,407 7.8 -16.7°
Reaches altitude 10° 03:13:27 10° 353° (N) 2,462 7.1 -16.3°
Maximum altitude 03:19:01 77° 79° (E) 859 4.3 -15.6°
Drops below altitude 10° 03:24:31 10° 166° (SSE) 2,435 6.3 -14.8°
Sets 03:26:55 0° 168° (SSE) 3,367 7.1 -14.5°
